EW0822 Weather Reports


time (UTC)temp
C
wind
direction
speed
KPH
gust
KPH
rain 1hr
cm
rain 24hr
cm
rain mn
cm
humidity
%
barometer
mb
20260508074501 11 74 0.0 6.4 0.00 0.00 0.00 79 1018.0
20260508073101 11 61 0.0 4.8 0.00 0.00 0.00 79 1017.9
20260508071558 10 74 0.0 1.6 0.00 0.00 0.00 80 1017.9
20260508070058 10 46 0.0 6.4 0.00 0.00 0.00 80 1017.8
20260508064606 10 48 0.0 8.0 0.00 0.00 0.00 79 1017.7
20260508063048 9 51 0.0 6.4 0.00 0.00 0.00 79 1017.6
20260508061544 9 51 0.0 8.0 0.00 0.00 0.00 79 1017.5
20260508060041 8 51 0.0 1.6 0.00 0.00 0.00 78 1017.4
20260508054540 8 51 0.0 6.4 0.00 0.00 0.00 77 1017.4
20260508053039 8 57 0.0 0.0 0.00 0.00 0.00 77 1017.3
20260508051537 8 55 0.0 1.6 0.00 0.00 0.00 76 1017.1
20260508050044 8 55 0.0 0.0 0.00 0.00 0.00 75 1017.0
20260508044534 7 55 0.0 0.0 0.00 0.00 0.00 75 1017.0
20260508043035 7 54 0.0 0.0 0.00 0.00 0.00 75 1016.9
20260508041530 7 54 0.0 0.0 0.00 0.00 0.00 75 1016.9
20260508040024 7 53 0.0 0.0 0.00 0.00 0.00 75 1016.9
20260508034525 7 42 0.0 0.0 0.00 0.00 0.00 75 1016.9
20260508033030 7 41 0.0 0.0 0.00 0.00 0.00 75 1016.8
20260508031523 7 36 0.0 3.2 0.00 0.00 0.00 75 1016.9
20260508030023 7 26 0.0 0.0 0.00 0.00 0.00 75 1016.8
20260508024527 7 26 0.0 6.4 0.00 0.00 0.00 75 1016.8
20260508023032 7 9 0.0 0.0 0.00 0.00 0.00 75 1016.8
20260508021522 7 9 0.0 0.0 0.00 0.00 0.00 75 1016.8
20260508020022 7 9 0.0 0.0 0.00 0.00 0.00 76 1016.7
20260508014527 7 9 0.0 0.0 0.00 0.00 0.00 76 1016.6
20260508013018 7 9 0.0 0.0 0.00 0.00 0.00 76 1016.7
20260508011520 7 5 0.0 3.2 0.00 0.00 0.00 76 1016.7
20260508010020 7 355 0.0 0.0 0.00 0.00 0.00 76 1016.6
20260508004516 7 355 0.0 0.0 0.00 0.00 0.00 76 1016.6
20260508003015 7 355 0.0 0.0 0.00 0.00 0.00 76 1016.7
20260508001513 7 355 0.0 0.0 0.00 0.00 0.00 77 1016.7
20260508000012 7 355 0.0 0.0 0.00 0.00 0.00 77 1016.8
20260507234515 7 355 0.0 0.0 0.00 0.00 0.00 77 1016.8
20260507233009 7 355 0.0 0.0 0.00 0.00 0.00 78 1016.9
20260507231508 7 355 0.0 0.0 0.00 0.00 0.00 79 1016.9
20260507230006 7 355 0.0 0.0 0.00 0.00 0.00 79 1016.8
20260507224508 8 355 0.0 0.0 0.00 0.00 0.00 80 1016.7
20260507223100 8 355 0.0 0.0 0.00 0.00 0.00 80 1016.7
20260507221559 8 355 0.0 0.0 0.00 0.00 0.00 80 1016.7
20260507220056 9 355 0.0 0.0 0.00 0.00 0.00 80 1016.7
20260507214607 10 355 0.0 0.0 0.00 0.00 0.00 79 1016.5
20260507213106 10 355 0.0 0.0 0.00 0.00 0.00 78 1016.4
20260507211553 11 355 0.0 0.0 0.00 0.00 0.00 75 1016.4
20260507210054 11 355 0.0 0.0 0.00 0.00 0.00 74 1016.4
20260507204600 11 355 0.0 0.0 0.00 0.00 0.00 72 1016.3
20260507203049 12 355 0.0 0.0 0.00 0.00 0.00 72 1016.2
20260507201548 12 355 0.0 0.0 0.00 0.00 0.00 70 1016.1
20260507200046 12 348 0.0 0.0 0.00 0.00 0.00 70 1016.0
20260507194547 12 346 0.0 0.0 0.00 0.00 0.00 69 1016.0
20260507193044 12 342 0.0 0.0 0.00 0.00 0.00 69 1015.8
20260507191543 13 342 0.0 0.0 0.00 0.00 0.00 68 1015.7
20260507190043 13 342 0.0 0.0 0.00 0.00 0.00 67 1015.6
20260507184540 13 342 0.0 0.0 0.00 0.00 0.00 67 1015.5
20260507183042 13 342 0.0 0.0 0.00 0.00 0.00 67 1015.4
20260507181538 13 342 0.0 0.0 0.00 0.00 0.00 67 1015.5
20260507180037 13 342 0.0 0.0 0.00 0.00 0.00 66 1015.3
20260507174539 14 342 0.0 0.0 0.00 0.00 0.00 65 1015.2
20260507173036 14 342 0.0 0.0 0.00 0.00 0.00 63 1015.2
20260507171534 14 342 0.0 0.0 0.00 0.00 0.00 61 1015.1
20260507170035 14 296 0.0 0.0 0.00 0.00 0.00 61 1015.1
20260507164537 15 245 0.0 0.0 0.00 0.00 0.00 61 1015.0
20260507163033 15 228 0.0 0.0 0.00 0.00 0.00 60 1015.0
20260507161531 15 219 0.0 0.0 0.00 0.00 0.00 59 1015.0
20260507160030 15 214 0.0 0.0 0.00 0.00 0.00 57 1014.9
20260507154532 15 202 0.0 0.0 0.00 0.00 0.00 56 1014.8
20260507153028 15 355 0.0 0.0 0.00 0.00 0.00 59 1014.8
20260507151530 15 24 0.0 6.4 0.00 0.00 0.00 58 1014.7
20260507150031 15 305 0.0 0.0 0.00 0.00 0.00 58 1014.5
20260507144529 15 174 0.0 0.0 0.00 0.00 0.00 56 1014.5
20260507143025 15 231 0.0 0.0 0.00 0.00 0.00 55 1014.6
20260507141525 16 253 0.0 0.0 0.00 0.00 0.00 55 1014.6
20260507140024 15 186 0.0 0.0 0.00 0.00 0.00 55 1014.6
20260507134524 15 246 0.0 0.0 0.00 0.00 0.00 54 1014.7
20260507133024 15 198 0.0 0.0 0.00 0.00 0.00 56 1014.7
20260507131522 15 201 0.0 0.0 0.00 0.00 0.00 55 1014.7
20260507130022 15 190 0.0 1.6 0.00 0.00 0.00 53 1014.7
20260507124524 15 188 0.0 1.6 0.00 0.00 0.00 55 1014.6
20260507123019 15 273 0.0 0.0 0.00 0.00 0.00 56 1014.5
20260507121515 15 292 0.0 1.6 0.00 0.00 0.00 58 1014.5
20260507120013 15 286 0.0 0.0 0.00 0.00 0.00 58 1014.5
20260507114512 15 215 0.0 0.0 0.00 0.00 0.00 59 1014.6
20260507113009 15 272 0.0 0.0 0.00 0.00 0.00 60 1014.5
20260507111510 14 186 0.0 0.0 0.00 0.00 0.00 61 1014.6
20260507110005 14 234 0.0 0.0 0.00 0.00 0.00 64 1014.6
20260507104502 13 213 0.0 6.4 0.00 0.00 0.00 65 1014.8
20260507103059 13 214 0.0 0.0 0.00 0.00 0.00 68 1014.7
20260507101557 13 184 0.0 0.0 0.00 0.00 0.00 68 1014.7
20260507100057 13 201 0.0 0.0 0.00 0.00 0.00 71 1014.6
20260507094555 13 248 0.0 3.2 0.00 0.00 0.00 71 1014.5
20260507093051 13 198 0.0 0.0 0.00 0.00 0.00 72 1014.5
20260507091548 12 267 0.0 3.2 0.00 0.00 0.00 74 1014.4
20260507090046 12 202 0.0 0.0 0.00 0.00 0.00 76 1014.4
20260507084544 12 187 0.0 0.0 0.00 0.00 0.00 78 1014.4
20260507083047 11 188 0.0 0.0 0.00 0.00 0.00 79 1014.3
20260507081536 11 212 0.0 0.0 0.00 0.00 0.00 80 1014.3
20260507080033 11 215 0.0 0.0 0.00 0.00 0.00 80 1014.3